SEASAT 1 1 10967U 78064A 10067.74219347 -.00000060 +00000-0 +23275-4 0 00619 2 10967 108.0107 155.2266 0003564 250.8084 109.2673 14.42184951663310 LANDSAT 4 1 13367U 82072A 10067.73632914 +.00000237 +00000-0 +23033-4 0 03719 2 13367 098.1950 002.3306 0018681 167.5051 192.6637 15.02356995484237 LANDSAT 5 1 14780U 84021A 10065.99326209 .00000020 00000-0 14399-4 0 5793 2 14780 098.2090 135.4087 0003179 034.9246 325.2161 14.57111046383651 COSMOS 1602 1 15331U 84105A 10067.45287281 +.00000387 +00000-0 +27654-4 0 00359 2 15331 082.5263 020.7979 0016067 047.2261 313.0311 15.01491049381689 SPOT 1 1 16613U 86019A 10067.68665493 +.00000049 +00000-0 +19727-4 0 06633 2 16613 098.7267 294.3951 0151660 330.5038 028.7662 14.60909097940988 COSMOS 1766 1 16881U 86055A 10067.66563443 +.00000637 +00000-0 +49318-4 0 06227 2 16881 082.5083 079.7989 0015729 112.7113 247.5758 14.99681739281850 MOS 1A (MOMO 1) 1 17527U 87018A 10067.75624165 +.00000037 +00000-0 +53107-4 0 03518 2 17527 098.9957 029.5329 0008964 061.0404 299.1662 14.01927699177034 IRS 1A 1 18960U 88021A 10066.04398462 -.00000038 00000-0 61079-5 0 7787 2 18960 099.3234 035.6827 0013885 244.3276 115.6452 13.96428226 23372 OKEAN 1 1 19274U 88056A 10067.49944211 +.00000202 +00000-0 +15265-4 0 09535 2 19274 082.5072 194.0732 0014486 331.9473 028.0968 14.96864429176288 SPOT 2 1 20436U 90005A 10067.77145728 +.00000140 +00000-0 +34211-4 0 00692 2 20436 098.6352 152.6883 0155040 205.9380 153.3986 14.61950311044201 MOS 1B (MOMO 1B) 1 20478U 90013A 10065.47791737 .00000203 00000-0 18268-3 0 9118 2 20478 098.9390 023.5736 0005545 156.5974 203.5421 13.94970457942879 OKEAN 2 1 20510U 90018A 10067.73885702 +.00000436 +00000-0 +40628-4 0 03238 2 20510 082.5190 187.9758 0012590 270.9604 089.0181 14.91827265084357 OKEAN 3 1 21397U 91039A 10067.72165066 +.00000255 +00000-0 +25589-4 0 09154 2 21397 082.5235 130.9190 0021654 083.4902 276.8772 14.86916004014188 ERS 1 1 21574U 91050A 10067.62806662 -.00000062 +00000-0 -73821-5 0 06920 2 21574 098.1552 076.5756 0034066 358.5683 001.5387 14.35697694976037 IRS 1B 1 21688U 91061A 10066.10858811 -.00000276 00000-0 -16865-3 0 7227 2 21688 098.7068 068.0669 0025155 120.2489 240.1174 13.96930435838331 TOPEX/POSEIDON 1 22076U 92052A 10066.04651252 -.00000038 00000-0 10000-3 0 4893 2 22076 066.0377 244.7108 0007125 268.1624 091.8568 12.80950837821919 SPOT 3 1 22823U 93061A 10067.77040491 +.00000021 +00000-0 +30565-4 0 04926 2 22823 098.6071 021.5758 0016802 330.8544 029.1695 14.18691106851667 OKEAN 4 1 23317U 94066A 10067.70682779 +.00000276 +00000-0 +31127-4 0 01727 2 23317 082.5376 087.6467 0021106 209.2431 150.7604 14.82777182831561 IRS P2 1 23323U 94068A 10066.14730444 .00000012 00000-0 23787-4 0 5585 2 23323 098.4470 032.5978 0000971 077.3742 282.7553 14.23082508799200 RESURS O1 1 23342U 94074A 10067.74233434 -.00000036 +00000-0 +22260-5 0 08516 2 23342 098.0526 044.5850 0001528 058.3132 301.8226 14.76835545825241 ERS 2 1 23560U 95021A 10066.03326549 .00000226 00000-0 10000-3 0 9745 2 23560 098.5292 142.3661 0001219 092.8246 029.1609 14.32255533777832 SICH 1 1 23657U 95046A 10067.76695407 +.00000443 +00000-0 +52975-4 0 09695 2 23657 082.5268 228.6184 0022993 206.3947 153.6100 14.81727178783441 RADARSAT 1 23710U 95059A 10065.80646991 .00000141 00000-0 71516-4 0 1022 2 23710 098.5818 073.8703 0001089 093.2705 249.7379 14.29978806748336 IRS 1C 1 23751U 95072A 10067.79283204 +.00000225 +00000-0 +12050-3 0 09204 2 23751 098.3543 062.8949 0000904 084.8291 275.2979 14.21859667736674 IRS B3 1 23827U 96017A 10067.74222323 +.00000002 +00000-0 +19829-4 0 08033 2 23827 098.4238 037.2131 0003031 170.6026 189.5211 14.21716063724713 TOMS EP 1 23940U 96037A 10067.67235847 +.00000047 +00000-0 +22158-4 0 02962 2 23940 097.9955 292.9986 0028594 257.0418 102.7603 14.52292505727813 ADEOS 1 24277U 96046A 10065.94706108 .00000008 00000-0 20045-4 0 2978 2 24277 098.4034 025.3367 0000795 159.1348 200.9863 14.28609953706446 ORBVIEW 2 (SEASTAR) 1 24883U 97037A 10067.40661336 +.00000052 +00000-0 +20844-4 0 00758 2 24883 098.3701 198.4566 0002514 100.5200 259.6305 14.60027421670992 IRS 1D 1 24971U 97057A 10066.11192559 .00000122 00000-0 58860-4 0 1793 2 24971 098.2097 094.0476 0053221 229.4165 130.2384 14.32968259650485 TRMM 1 25063U 97074A 10067.96664766 +.00006952 +00000-0 +96632-4 0 03049 2 25063 034.9656 027.1699 0000976 266.5612 093.5007 15.56203905701362 SPOT 4 1 25260U 98017A 10066.16456605 .00000053 00000-0 45000-4 0 9964 2 25260 098.6650 139.1013 0000734 118.6449 241.4986 14.20060766619659 RESURS O1-N4 1 25394U 98043A 10067.67230692 +.00000004 +00000-0 +19221-4 0 04512 2 25394 098.3138 091.1898 0001888 126.9798 233.1559 14.24194596606049 FASAT B 1 25395U 98043B 10065.21452293 .00000033 00000-0 32025-4 0 6841 2 25395 098.3116 087.5883 0003280 142.6350 217.5062 14.24377587605740 TMSAT 1 25396U 98043C 10067.79621188 -.00000018 +00000-0 +98998-5 0 06451 2 25396 098.3148 086.7050 0002618 157.0690 203.0605 14.23796352605954 TECHSAT 1B 1 25397U 98043D 10065.17360531 -.00000087 00000-0 -20733-4 0 1288 2 25397 098.3168 078.2872 0001386 160.3802 199.7431 14.23172344605393 ROCSAT 1 1 25616U 99002A 10067.89659469 +.00000803 +00000-0 +62939-4 0 00524 2 25616 034.9658 011.1615 0047782 269.1387 090.3864 15.00645780607218 SUNSAT 1 25636U 99008C 10066.05256147 .00000030 00000-0 15303-4 0 5514 2 25636 096.4723 192.0613 0149368 109.2429 252.5002 14.43491113581028 LANDSAT 7 1 25682U 99020A 10066.16571677 .00000022 00000-0 14926-4 0 6780 2 25682 098.2202 135.8025 0001046 116.6929 243.4377 14.57104483579375 OSCAR 36 (UOSAT 12) 1 25693U 99021A 10065.46497743 -.00000085 00000-0 79224-5 0 1425 2 25693 064.5595 030.0583 0026570 323.9355 035.9950 14.78783605586627 KITSAT 3 1 25756U 99029A 10067.61227534 -.00000069 +00000-0 -49613-5 0 01478 2 25756 098.6506 273.8307 0014867 088.5527 271.7367 14.52565460571545 TUBSAT 1 25757U 99029B 10066.03893439 -.00000052 00000-0 -10760-5 0 6600 2 25757 098.6808 262.8839 0015243 121.8675 238.3997 14.50855983570821 IRS P4 (OCEANSAT 1) 1 25758U 99029C 10066.16656077 .00001060 00000-0 27985-3 0 3868 2 25758 098.2679 161.8638 0001067 110.6888 249.4447 14.50868603570994 QUIKSCAT 1 25789U 99034A 10065.65157043 -.00000023 00000-0 85531-5 0 6584 2 25789 098.6308 256.3048 0000368 103.7873 256.3344 14.26800268557888 OKEAN O 1 25860U 99039A 10066.08984565 .00000045 00000-0 14289-4 0 9312 2 25860 097.8215 042.3221 0001861 066.2304 293.9091 14.73618886571868 IKONOS 2 1 25919U 99051A 10065.78182275 .00000020 00000-0 12626-4 0 9434 2 25919 098.1046 142.1745 0001180 065.7290 294.4038 14.64449976558494 CBERS 1 1 25940U 99057A 10067.57476390 +.00000086 +00000-0 +44721-4 0 05278 2 25940 098.1686 063.3756 0005499 022.8563 337.2885 14.34478802544711 TERRA 1 25994U 99068A 10066.11474751 .00000115 00000-0 35545-4 0 5724 2 25994 098.2116 142.2130 0000744 059.9770 300.1515 14.57109547543441 KOMPSAT 1 26032U 99070A 10065.79608774 .00000093 00000-0 25376-4 0 7007 2 26032 097.8859 301.5223 0006210 116.4588 243.7261 14.65674519545950 TIUNGSAT 1 1 26548U 00057D 10067.71969609 +.00000226 +00000-0 +45190-4 0 06336 2 26548 064.5564 341.9218 0043543 236.4983 123.1989 14.83450665511191 EO 1 1 26619U 00075A 10066.10407989 .00000188 00000-0 46675-4 0 9390 2 26619 098.1439 134.7121 0009969 197.7816 162.3046 14.62083840494680 SAC C 1 26620U 00075B 10067.59551595 +.00000150 +00000-0 +43154-4 0 09454 2 26620 097.8871 091.5632 0000916 090.1958 269.9439 14.56601786494162 EROS A1 1 26631U 00079A 10066.16321389 .00002235 00000-0 11099-3 0 7049 2 26631 097.4550 133.3315 0009909 143.7303 295.1497 15.18680191514420 QUICKBIRD 2 1 26953U 01047A 10065.79720668 .00003763 00000-0 96593-4 0 80 2 26953 097.1167 140.8809 0001781 066.4981 042.4604 15.39921328471026 TES 1 26957U 01049A 10066.16106319 .00000732 00000-0 61501-4 0 9936 2 26957 097.6327 143.5896 0025553 011.1052 349.0761 15.01133925458659 JASON 1 26997U 01055A 10067.89312010 -.00000038 +00000-0 +10000-3 0 01530 2 26997 066.0402 240.6779 0007084 276.5603 083.4605 12.80931407385946 METEOR 3M 1 27001U 01056A 10067.65009379 -.00000038 +00000-0 +50806-5 0 05986 2 27001 099.2330 277.1252 0014360 069.2374 291.0307 13.68714711411691 BADR B 1 27003U 01056C 10067.74818795 -.00000024 +00000-0 +20805-4 0 04684 2 27003 099.2187 283.7954 0020966 070.2563 290.0842 13.70103061412187 MAROC TUBSAT 1 27004U 01056D 10066.13488190 .00000024 00000-0 74373-4 0 4610 2 27004 099.2135 281.5036 0020535 075.5349 284.8065 13.70031130411937 ENVISAT 1 27386U 02009A 10065.73821581 .00000041 00000-0 31491-4 0 8439 2 27386 098.5477 134.3231 0000911 094.1595 058.3213 14.32247627419070 SPOT 5 1 27421U 02021A 10066.14199884 .00000169 00000-0 10000-3 0 9145 2 27421 098.7415 141.4636 0000882 074.1973 012.2647 14.20024879406487 AQUA 1 27424U 02022A 10067.71511911 +.00000102 +00000-0 +32737-4 0 05787 2 27424 098.2094 010.7149 0001652 072.1760 287.9602 14.57122354417282 HAIYANG 1 1 27430U 02024A 10065.29588717 .00000025 00000-0 26208-4 0 2894 2 27430 098.4408 129.0883 0009462 031.3479 328.8272 14.29742693407527 ALSAT 1 1 27559U 02054A 10066.12427063 .00000035 00000-0 14017-4 0 2467 2 27559 097.9043 298.1335 0022298 236.6718 123.2344 14.69371498388335 ADEOS 2 1 27597U 02056A 10067.77107983 +.00000038 +00000-0 +33338-4 0 00917 2 27597 098.4382 128.2643 0000433 146.6021 213.5182 14.26196752376508 ICESAT 1 27642U 03002A 10065.89163661 .00000381 00000-0 39993-4 0 5005 2 27642 093.9936 066.1279 0003797 052.6049 307.5524 14.90872731388800 ORBVIEW 3 1 27838U 03030A 10066.20839298 .00003890 00000-0 93732-4 0 3866 2 27838 097.0205 120.5709 0001673 110.4930 249.6534 15.41820062375919 IRS P6 1 28051U 03046A 10066.14410117 .00000176 00000-0 10000-3 0 4938 2 28051 098.6836 143.3407 0003089 105.1384 341.3455 14.21646824331473 CBERS 2 1 28057U 03049A 10066.10106381 -.00000021 00000-0 70235-5 0 673 2 28057 098.2449 112.0699 0000623 326.9217 033.1937 14.34927009334105 TANSUO 1 1 28220U 04012A 10067.67379541 +.00000329 +00000-0 +40551-4 0 04670 2 28220 097.4667 095.5573 0012771 038.7212 321.4885 14.88786359319766 ROCSAT 2 1 28254U 04018A 10066.13326904 .00000104 00000-0 10000-3 0 5552 2 28254 099.0948 129.0652 0000700 180.2011 267.0059 14.00728741296333 AURA 1 28376U 04026A 10067.85775766 +.00000134 +00000-0 +39674-4 0 07431 2 28376 098.2072 012.9276 0001400 075.5559 284.5798 14.57118569300355 CARTOSAT-1 1 28649U 05017A 10066.07640504 .00000037 00000-0 11207-4 0 4609 2 28649 097.9257 140.0894 0000843 062.6814 297.4487 14.82625279261813 TOPSAT 1 28891U 05043B 10066.10533991 .00000003 00000-0 10049-4 0 8770 2 28891 098.0193 312.8021 0016001 243.4290 116.5280 14.59797844232221 SINAH 1 1 28893U 05043D 10065.68272383 .00000061 00000-0 22161-4 0 7051 2 28893 098.0226 313.5582 0014583 244.5775 115.3906 14.60101872232216 ALOS 1 28931U 06002A 10065.77674679 .00000127 00000-0 36341-4 0 6130 2 28931 098.1609 142.1966 0001164 095.7229 264.4103 14.59569212219201 EROS B 1 29079U 06014A 10066.11891204 .00002580 00000-0 12825-3 0 3582 2 29079 097.4181 186.8018 0009356 210.5979 157.5747 15.18501186214411 YAOGAN 1 1 29092U 06015A 10065.75976815 .00000441 00000-0 64652-4 0 3264 2 29092 097.8626 059.1653 0001555 093.1451 266.9927 14.80273218208614 RESURS DK-1 1 29228U 06021A 10066.10491326 .00001900 00000-0 43850-4 0 1920 2 29228 069.9323 030.5353 0156192 110.3022 251.4963 15.33066965208610 KOMPSAT 2 1 29268U 06031A 10065.76306499 .00000079 00000-0 25017-4 0 214 2 29268 098.0109 315.7323 0018700 044.7049 315.5659 14.61744225192444 LAPAN-TUBSAT 1 29709U 07001A 10066.08441041 .00000005 00000-0 72628-5 0 5025 2 29709 097.7740 119.1568 0013884 143.2869 216.9300 14.80286078170374 CARTOSAT 2AT 1 29710U 07001B 10066.01610106 .00000302 00000-0 48274-4 0 4972 2 29710 097.9747 127.2407 0001984 105.5620 254.5804 14.78624086170224 HAIYANG 1B 1 31113U 07010A 10066.12999425 .00000097 00000-0 54924-4 0 2347 2 31113 098.5129 139.3326 0013926 016.8938 343.2718 14.29457340151507 SKYMED 1 1 31598U 07023A 10066.08018585 -.00000068 00000-0 -20675-5 0 684 2 31598 097.8641 255.3319 0001298 089.5196 270.6163 14.82165393148560 TERRA SAR X 1 31698U 07026A 10066.08050904 -.00000270 00000-0 -96495-5 0 395 2 31698 097.4463 074.7250 0001726 077.9255 007.7432 15.19149644151181 WORLDVIEW 1 1 32060U 07041A 10066.10248760 .00001139 00000-0 49387-4 0 7531 2 32060 097.4034 146.0107 0001371 050.1258 041.3873 15.24377835137149 CBERS 2B 1 32062U 07042A 10066.00939352 .00000032 00000-0 24698-4 0 7435 2 32062 098.4546 143.6530 0026070 284.9172 074.9129 14.38460371129192 SKYMED 2 1 32376U 07059A 10065.97892504 .00000173 00000-0 28295-4 0 4815 2 32376 097.8638 255.2328 0001331 088.7000 271.4353 14.82167129121293 RADARSAT 2 1 32382U 07061A 10066.14410865 -.00000022 00000-0 85560-5 0 4577 2 32382 098.5809 075.0509 0001029 085.0035 002.9567 14.29982975116270 CARTOSAT 2A 1 32783U 08021A 10065.97393490 .00000023 00000-0 10229-4 0 635 2 32783 097.9109 129.6981 0014411 284.2235 075.7374 14.78697186100161 IMS-1 1 32786U 08021D 10065.61816030 .00000186 00000-0 31387-4 0 6408 2 32786 097.9107 130.6246 0011247 256.9696 103.0313 14.80058673100207 GLAST 1 33053U 08029A 10065.96359774 .00000279 00000-0 00000+0 0 4548 2 33053 025.5844 014.8830 0014147 267.7513 092.1425 15.05018081 95518 JASON 2 1 33105U 08032A 10066.13364662 -.00000050 00000-0 46041-4 0 5765 2 33105 066.0390 244.7363 0007361 272.3442 087.6730 12.80930696 80023 RAPIDEYE 2 1 33312U 08040A 10066.06482113 -.00000246 00000-0 -25603-4 0 7185 2 33312 097.9553 154.2155 0011932 347.3674 012.7253 14.79892544 82086 RAPIDEYE 5 1 33313U 08040B 10066.09067819 .00000087 00000-0 18495-4 0 7071 2 33313 097.9559 153.5908 0017440 206.9927 153.0378 14.79927757 82039 RAPIDEYE 1 1 33314U 08040C 10066.07804632 -.00006422 00000-0 -84084-3 0 7530 2 33314 097.9542 154.3221 0024578 355.2640 004.6783 14.79885445 82071 RAPIDEYE 3 1 33315U 08040D 10066.04993776 .00000027 00000-0 10495-4 0 6871 2 33315 097.9540 153.6686 0011155 290.3229 069.6769 14.79927423 82030 RAPIDEYE 4 1 33316U 08040E 10066.10366578 .00000068 00000-0 15932-4 0 6789 2 33316 097.9536 153.5910 0011260 226.8543 133.1724 14.79928460 82035 HJ-1A 1 33320U 08041A 10065.49133680 .00000064 00000-0 17032-4 0 6556 2 33320 097.9527 142.1621 0024125 320.7931 039.1531 14.75230564 80566 HJ-1B 1 33321U 08041B 10065.72703416 .00000034 00000-0 12683-4 0 6940 2 33321 097.9549 142.4329 0042579 331.2897 028.5979 14.75240721 80586 GEOEYE 1 1 33331U 08042A 10066.15586766 -.00000001 00000-0 88216-5 0 6678 2 33331 098.0809 141.4856 0010221 336.9280 023.1477 14.64461724 79969 THEOS 1 33396U 08049A 10066.12000887 .00000169 00000-0 10000-3 0 4539 2 33396 098.7089 134.8798 0000851 083.8555 006.5040 14.20037913 74090 SKYMED 3 1 33412U 08054A 10065.49368903 .00000336 00000-0 48672-4 0 5049 2 33412 097.8641 254.7552 0001224 088.3324 271.8049 14.82168131 73687 YAOGAN 4 1 33446U 08061A 10065.79143855 -.00000021 00000-0 42264-5 0 4115 2 33446 097.8778 145.5386 0012553 261.9697 098.0099 14.75510162 67927 YAOGAN 5 1 33456U 08064A 10066.12414157 .00001676 00000-0 69699-4 0 4007 2 33456 097.3452 141.8561 0005352 149.2524 269.1013 15.25149939 68128